Time,TemperatureF,DewpointF,PressureIn,WindDirection,WindDirectionDegrees,WindSpeedMPH,WindSpeedGustMPH,Humidity,HourlyPrecipIn,Conditions,Clouds,dailyrainin,SoftwareType,DateUTC
2013-07-14 00:02:00,54.7,38.9,29.83,SSW,194,0.0,0.0,55,0.00,,---,0.00,VWS V14.01,2013-07-14 07:02:00,
2013-07-14 00:07:00,54.4,38.6,29.83,SSW,194,0.0,0.0,55,0.00,,---,0.00,VWS V14.01,2013-07-14 07:07:00,
2013-07-14 00:12:00,54.3,39.4,29.83,SSW,194,0.0,0.0,57,0.00,,---,0.00,VWS V14.01,2013-07-14 07:12:00,
2013-07-14 00:18:00,54.4,39.5,29.83,SSW,195,0.0,0.0,57,0.00,,---,0.00,VWS V14.01,2013-07-14 07:18:00,
2013-07-14 00:23:00,54.5,40.5,29.83,SSW,194,0.0,0.0,59,0.00,,---,0.00,VWS V14.01,2013-07-14 07:23:00,
2013-07-14 00:28:00,54.4,40.0,29.83,SSW,195,0.0,0.0,58,0.00,,---,0.00,VWS V14.01,2013-07-14 07:28:00,
2013-07-14 00:33:00,54.6,39.7,29.83,SSW,195,0.0,0.0,57,0.00,,---,0.00,VWS V14.01,2013-07-14 07:33:00,
2013-07-14 00:38:00,54.6,39.2,29.82,SSW,194,0.0,0.0,56,0.00,,---,0.00,VWS V14.01,2013-07-14 07:38:00,
2013-07-14 00:43:00,54.4,38.1,29.82,SSW,195,0.0,0.0,54,0.00,,---,0.00,VWS V14.01,2013-07-14 07:43:00,
2013-07-14 00:48:00,54.2,37.9,29.82,SSW,194,0.0,0.0,54,0.00,,---,0.00,VWS V14.01,2013-07-14 07:48:00,
2013-07-14 00:53:00,53.9,37.7,29.82,SSW,194,0.0,0.0,54,0.00,,---,0.00,VWS V14.01,2013-07-14 07:53:00,
2013-07-14 00:58:00,53.8,37.6,29.82,SSW,195,0.0,0.0,54,0.00,,---,0.00,VWS V14.01,2013-07-14 07:58:00,
2013-07-14 01:03:00,53.7,37.0,29.82,SSW,195,0.0,0.0,53,0.00,,---,0.00,VWS V14.01,2013-07-14 08:03:00,
2013-07-14 01:08:00,53.4,38.1,29.82,SSW,195,0.0,0.0,56,0.00,,---,0.00,VWS V14.01,2013-07-14 08:08:00,
2013-07-14 01:13:00,53.4,38.1,29.82,SSW,195,0.0,0.0,56,0.00,,---,0.00,VWS V14.01,2013-07-14 08:13:00,
2013-07-14 01:18:00,53.6,38.3,29.82,SSW,194,0.0,0.0,56,0.00,,---,0.00,VWS V14.01,2013-07-14 08:18:00,
2013-07-14 01:23:00,53.8,38.0,29.82,SSW,195,0.0,0.0,55,0.00,,---,0.00,VWS V14.01,2013-07-14 08:23:00,
2013-07-14 01:28:00,54.1,36.9,29.82,SSW,195,0.0,0.0,52,0.00,,---,0.00,VWS V14.01,2013-07-14 08:28:00,
2013-07-14 01:33:00,54.1,36.4,29.82,SSW,195,0.0,0.0,51,0.00,,---,0.00,VWS V14.01,2013-07-14 08:33:00,
2013-07-14 01:38:00,54.1,36.4,29.82,SSW,195,0.0,0.0,51,0.00,,---,0.00,VWS V14.01,2013-07-14 08:38:00,
2013-07-14 01:43:00,54.0,36.3,29.82,SSW,199,0.0,0.0,51,0.00,,---,0.00,VWS V14.01,2013-07-14 08:43:00,
2013-07-14 01:48:00,53.9,36.2,29.82,SSW,199,0.0,0.0,51,0.00,,---,0.00,VWS V14.01,2013-07-14 08:48:00,
2013-07-14 01:53:00,53.8,36.1,29.82,SSW,200,0.0,0.0,51,0.00,,---,0.00,VWS V14.01,2013-07-14 08:53:00,
2013-07-14 01:58:00,53.7,36.5,29.82,SSW,200,0.0,0.0,52,0.00,,---,0.00,VWS V14.01,2013-07-14 08:58:00,
2013-07-14 02:03:00,53.7,36.5,29.82,SSW,200,0.0,0.0,52,0.00,,---,0.00,VWS V14.01,2013-07-14 09:03:00,
2013-07-14 02:08:00,53.8,36.6,29.82,SSW,200,0.0,0.0,52,0.00,,---,0.00,VWS V14.01,2013-07-14 09:08:00,
2013-07-14 02:13:00,53.9,36.2,29.82,SSW,200,0.0,0.0,51,0.00,,---,0.00,VWS V14.01,2013-07-14 09:13:00,
2013-07-14 02:18:00,53.9,36.2,29.82,SSW,200,0.0,0.0,51,0.00,,---,0.00,VWS V14.01,2013-07-14 09:18:00,
2013-07-14 02:23:00,53.9,36.2,29.82,SSW,200,0.0,0.0,51,0.00,,---,0.00,VWS V14.01,2013-07-14 09:23:00,
2013-07-14 02:28:00,53.9,35.7,29.82,SSW,200,0.0,0.0,50,0.00,,---,0.00,VWS V14.01,2013-07-14 09:28:00,
2013-07-14 02:33:00,53.8,35.6,29.82,SSW,199,0.0,0.0,50,0.00,,---,0.00,VWS V14.01,2013-07-14 09:33:00,
2013-07-14 02:39:00,53.6,34.9,29.82,SSW,200,0.0,0.0,49,0.00,,---,0.00,VWS V14.01,2013-07-14 09:39:00,
2013-07-14 02:44:00,53.5,35.3,29.82,SSW,200,0.0,0.0,50,0.00,,---,0.00,VWS V14.01,2013-07-14 09:44:00,
2013-07-14 02:49:00,53.5,35.3,29.82,SSW,200,0.0,0.0,50,0.00,,---,0.00,VWS V14.01,2013-07-14 09:49:00,
2013-07-14 02:54:00,53.4,34.7,29.82,SSW,200,0.0,0.0,49,0.00,,---,0.00,VWS V14.01,2013-07-14 09:54:00,
2013-07-14 02:59:00,53.4,34.7,29.82,SSW,200,0.0,0.0,49,0.00,,---,0.00,VWS V14.01,2013-07-14 09:59:00,
2013-07-14 03:04:00,53.5,34.8,29.82,SSW,199,0.0,0.0,49,0.00,,---,0.00,VWS V14.01,2013-07-14 10:04:00,
2013-07-14 03:09:00,53.5,34.8,29.82,SSW,199,0.0,0.0,49,0.00,,---,0.00,VWS V14.01,2013-07-14 10:09:00,
2013-07-14 03:14:00,53.2,34.5,29.82,SSW,200,0.0,0.0,49,0.00,,---,0.00,VWS V14.01,2013-07-14 10:14:00,
2013-07-14 03:19:00,52.8,34.7,29.81,SSW,200,0.0,0.0,50,0.00,,---,0.00,VWS V14.01,2013-07-14 10:19:00,
2013-07-14 03:24:00,52.5,34.4,29.81,SSW,200,0.0,0.0,50,0.00,,---,0.00,VWS V14.01,2013-07-14 10:24:00,
2013-07-14 03:29:00,52.2,34.1,29.81,SSW,200,0.0,0.0,50,0.00,,---,0.00,VWS V14.01,2013-07-14 10:29:00,
2013-07-14 03:34:00,52.3,34.7,29.81,SSW,200,0.0,0.0,51,0.00,,---,0.00,VWS V14.01,2013-07-14 10:34:00,
2013-07-14 03:39:00,52.3,34.2,29.81,SSW,199,0.0,0.0,50,0.00,,---,0.00,VWS V14.01,2013-07-14 10:39:00,
2013-07-14 03:44:00,52.4,34.3,29.81,SSW,200,0.0,0.0,50,0.00,,---,0.00,VWS V14.01,2013-07-14 10:44:00,
2013-07-14 03:49:00,52.4,34.3,29.81,SSW,200,0.0,0.0,50,0.00,,---,0.00,VWS V14.01,2013-07-14 10:49:00,
2013-07-14 03:54:00,52.3,34.2,29.81,SSW,200,0.0,0.0,50,0.00,,---,0.00,VWS V14.01,2013-07-14 10:54:00,
2013-07-14 03:59:00,52.2,34.1,29.81,SSW,200,0.0,0.0,50,0.00,,---,0.00,VWS V14.01,2013-07-14 10:59:00,
2013-07-14 04:04:00,52.1,34.5,29.81,SSW,200,0.0,0.0,51,0.00,,---,0.00,VWS V14.01,2013-07-14 11:04:00,
2013-07-14 04:09:00,52.2,34.1,29.81,SSW,199,0.0,0.0,50,0.00,,---,0.00,VWS V14.01,2013-07-14 11:09:00,
2013-07-14 04:14:00,52.5,34.4,29.81,SSW,200,0.0,0.0,50,0.00,,---,0.00,VWS V14.01,2013-07-14 11:14:00,
2013-07-14 04:19:00,52.9,34.3,29.81,SSW,200,0.0,0.0,49,0.00,,---,0.00,VWS V14.01,2013-07-14 11:19:00,
2013-07-14 04:24:00,53.2,34.5,29.81,SSW,200,0.0,0.0,49,0.00,,---,0.00,VWS V14.01,2013-07-14 11:24:00,
2013-07-14 04:29:00,53.2,34.5,29.81,SSW,200,0.0,0.0,49,0.00,,---,0.00,VWS V14.01,2013-07-14 11:29:00,
2013-07-14 04:34:00,53.3,34.7,29.81,SSW,200,0.0,0.0,49,0.00,,---,0.00,VWS V14.01,2013-07-14 11:34:00,
2013-07-14 04:39:00,53.3,34.7,29.81,SSW,199,0.0,0.0,49,0.00,,---,0.00,VWS V14.01,2013-07-14 11:39:00,
2013-07-14 04:44:00,53.4,34.7,29.81,SSW,200,0.0,0.0,49,0.00,,---,0.00,VWS V14.01,2013-07-14 11:44:00,
2013-07-14 04:49:00,53.5,34.8,29.81,SSW,200,0.0,0.0,49,0.00,,---,0.00,VWS V14.01,2013-07-14 11:49:00,
2013-07-14 04:54:00,53.7,35.0,29.81,SSW,200,0.0,0.0,49,0.00,,---,0.00,VWS V14.01,2013-07-14 11:54:00,
2013-07-14 05:00:00,53.7,35.0,29.81,SSW,200,0.0,0.0,49,0.00,,---,0.00,VWS V14.01,2013-07-14 12:00:00,
2013-07-14 05:05:00,53.8,35.1,29.81,SSW,200,0.0,0.0,49,0.00,,---,0.00,VWS V14.01,2013-07-14 12:05:00,
2013-07-14 05:10:00,53.7,35.0,29.81,SSW,199,0.0,0.0,49,0.00,,---,0.00,VWS V14.01,2013-07-14 12:10:00,
2013-07-14 05:15:00,53.5,34.8,29.82,SSW,200,0.0,0.0,49,0.00,,---,0.00,VWS V14.01,2013-07-14 12:15:00,
2013-07-14 05:20:00,53.2,34.5,29.82,SSW,200,0.0,0.0,49,0.00,,---,0.00,VWS V14.01,2013-07-14 12:20:00,
2013-07-14 05:25:00,53.0,34.4,29.82,SSW,199,0.0,0.0,49,0.00,,---,0.00,VWS V14.01,2013-07-14 12:25:00,
2013-07-14 05:30:00,52.9,34.3,29.82,SSW,199,0.0,0.0,49,0.00,,---,0.00,VWS V14.01,2013-07-14 12:30:00,
2013-07-14 05:35:00,52.8,34.7,29.82,SSW,200,0.0,0.0,50,0.00,,---,0.00,VWS V14.01,2013-07-14 12:35:00,
2013-07-14 05:40:00,52.8,34.2,29.82,SSW,200,0.0,0.0,49,0.00,,---,0.00,VWS V14.01,2013-07-14 12:40:00,
2013-07-14 05:45:00,52.7,34.6,29.83,SSW,199,0.0,0.0,50,0.00,,---,0.00,VWS V14.01,2013-07-14 12:45:00,
2013-07-14 05:50:00,52.6,34.5,29.83,SSW,199,0.0,0.0,50,0.00,,---,0.00,VWS V14.01,2013-07-14 12:50:00,
2013-07-14 05:55:00,52.7,34.6,29.83,SSW,200,0.0,0.0,50,0.00,,---,0.00,VWS V14.01,2013-07-14 12:55:00,
2013-07-14 06:00:00,52.8,34.7,29.83,SSW,200,0.0,0.0,50,0.00,,---,0.00,VWS V14.01,2013-07-14 13:00:00,
2013-07-14 06:05:00,53.0,34.9,29.83,SSW,200,0.0,0.0,50,0.00,,---,0.00,VWS V14.01,2013-07-14 13:05:00,
2013-07-14 06:10:00,53.2,35.1,29.83,SSW,200,0.0,0.0,50,0.00,,---,0.00,VWS V14.01,2013-07-14 13:10:00,
2013-07-14 06:15:00,53.4,34.7,29.83,SSW,200,0.0,0.0,49,0.00,,---,0.00,VWS V14.01,2013-07-14 13:15:00,
2013-07-14 06:20:00,53.9,35.2,29.83,SSW,200,0.0,0.0,49,0.00,,---,0.00,VWS V14.01,2013-07-14 13:20:00,
2013-07-14 06:25:00,54.4,35.1,29.83,SSW,199,0.0,0.0,48,0.00,,---,0.00,VWS V14.01,2013-07-14 13:25:00,
2013-07-14 06:30:00,55.0,35.2,29.83,SSW,200,0.0,0.0,47,0.00,,---,0.00,VWS V14.01,2013-07-14 13:30:00,
2013-07-14 06:35:00,55.4,35.5,29.83,SSW,199,0.0,0.0,47,0.00,,---,0.00,VWS V14.01,2013-07-14 13:35:00,
2013-07-14 06:40:00,55.7,35.3,29.83,SSW,200,0.0,0.0,46,0.00,,---,0.00,VWS V14.01,2013-07-14 13:40:00,
2013-07-14 06:45:00,56.0,36.1,29.83,SSW,200,0.0,0.0,47,0.00,,---,0.00,VWS V14.01,2013-07-14 13:45:00,
2013-07-14 06:50:00,56.1,36.7,29.83,SSW,199,0.0,0.0,48,0.00,,---,0.00,VWS V14.01,2013-07-14 13:50:00,
2013-07-14 06:55:00,56.3,37.4,29.83,SSW,199,0.0,0.0,49,0.00,,---,0.00,VWS V14.01,2013-07-14 13:55:00,
2013-07-14 07:00:00,56.5,37.1,29.83,SSW,200,0.0,0.0,48,0.00,,---,0.00,VWS V14.01,2013-07-14 14:00:00,
2013-07-14 07:05:00,56.7,37.8,29.83,SSW,199,0.0,0.0,49,0.00,,---,0.00,VWS V14.01,2013-07-14 14:05:00,
2013-07-14 07:10:00,56.9,38.0,29.83,SSW,200,0.0,0.0,49,0.00,,---,0.00,VWS V14.01,2013-07-14 14:10:00,
2013-07-14 07:15:00,57.1,38.1,29.83,SSW,199,0.0,0.0,49,0.00,,---,0.00,VWS V14.01,2013-07-14 14:15:00,
2013-07-14 07:20:00,57.4,38.4,29.83,SSW,199,0.0,0.0,49,0.00,,---,0.00,VWS V14.01,2013-07-14 14:20:00,
2013-07-14 07:25:00,57.7,38.2,29.83,SSW,200,0.0,0.0,48,0.00,,---,0.00,VWS V14.01,2013-07-14 14:25:00,
2013-07-14 07:31:00,58.0,39.0,29.83,SSW,200,0.0,0.0,49,0.00,,---,0.00,VWS V14.01,2013-07-14 14:31:00,
2013-07-14 07:36:00,58.3,38.7,29.83,SSW,200,0.0,0.0,48,0.00,,---,0.00,VWS V14.01,2013-07-14 14:36:00,
2013-07-14 07:41:00,58.7,39.1,29.83,SSW,200,0.0,0.0,48,0.00,,---,0.00,VWS V14.01,2013-07-14 14:41:00,
2013-07-14 07:46:00,59.0,38.8,29.83,SSW,200,0.0,0.0,47,0.00,,---,0.00,VWS V14.01,2013-07-14 14:46:00,
2013-07-14 07:51:00,59.4,39.2,29.83,SSW,200,0.0,0.0,47,0.00,,---,0.00,VWS V14.01,2013-07-14 14:51:00,
2013-07-14 07:56:00,59.8,39.0,29.83,SSW,200,0.0,0.0,46,0.00,,---,0.00,VWS V14.01,2013-07-14 14:56:00,
2013-07-14 08:01:00,60.2,39.4,29.83,SSW,200,0.0,0.0,46,0.00,,---,0.00,VWS V14.01,2013-07-14 15:01:00,
2013-07-14 08:06:00,60.8,39.9,29.83,SSW,200,0.0,0.0,46,0.00,,---,0.00,VWS V14.01,2013-07-14 15:06:00,
2013-07-14 08:11:00,61.5,40.5,29.83,SSW,200,0.0,0.0,46,0.00,,---,0.00,VWS V14.01,2013-07-14 15:11:00,
2013-07-14 08:16:00,62.6,40.4,29.83,SSW,200,0.0,0.0,44,0.00,,---,0.00,VWS V14.01,2013-07-14 15:16:00,
2013-07-14 08:21:00,64.1,40.6,29.83,North,11,0.0,1.0,42,0.00,,---,0.00,VWS V14.01,2013-07-14 15:21:00,
2013-07-14 08:26:00,65.2,39.0,29.83,North,8,1.0,1.0,38,0.00,,---,0.00,VWS V14.01,2013-07-14 15:26:00,
2013-07-14 08:31:00,66.0,40.4,29.83,North,9,0.0,0.0,39,0.00,,---,0.00,VWS V14.01,2013-07-14 15:31:00,
2013-07-14 08:36:00,66.6,39.5,29.83,North,9,0.0,0.0,37,0.00,,---,0.00,VWS V14.01,2013-07-14 15:36:00,
2013-07-14 08:41:00,67.3,40.8,29.83,North,9,0.0,0.0,38,0.00,,---,0.00,VWS V14.01,2013-07-14 15:41:00,
2013-07-14 08:46:00,67.8,40.6,29.83,North,9,0.0,0.0,37,0.00,,---,0.00,VWS V14.01,2013-07-14 15:46:00,
2013-07-14 08:51:00,68.2,41.7,29.83,North,9,0.0,0.0,38,0.00,,---,0.00,VWS V14.01,2013-07-14 15:51:00,
2013-07-14 08:56:00,68.6,42.0,29.82,North,9,0.0,0.0,38,0.00,,---,0.00,VWS V14.01,2013-07-14 15:56:00,
2013-07-14 09:01:00,69.1,42.5,29.82,North,8,0.0,1.0,38,0.00,,---,0.00,VWS V14.01,2013-07-14 16:01:00,
2013-07-14 09:06:00,69.7,43.0,29.82,NNE,23,0.0,0.0,38,0.00,,---,0.00,VWS V14.01,2013-07-14 16:06:00,
2013-07-14 09:11:00,70.3,42.8,29.82,NNE,24,0.0,1.0,37,0.00,,---,0.00,VWS V14.01,2013-07-14 16:11:00,
2013-07-14 09:16:00,70.7,43.2,29.81,NNE,13,0.0,0.0,37,0.00,,---,0.00,VWS V14.01,2013-07-14 16:16:00,
2013-07-14 09:21:00,71.2,42.9,29.81,NNE,31,0.0,0.0,36,0.00,,---,0.00,VWS V14.01,2013-07-14 16:21:00,
2013-07-14 09:26:00,71.8,42.7,29.81,NW,309,1.0,2.0,35,0.00,,---,0.00,VWS V14.01,2013-07-14 16:26:00,
2013-07-14 09:31:00,72.2,42.3,29.81,NNE,16,0.0,0.0,34,0.00,,---,0.00,VWS V14.01,2013-07-14 16:31:00,
2013-07-14 09:36:00,72.8,42.0,29.81,NNW,343,1.0,2.0,33,0.00,,---,0.00,VWS V14.01,2013-07-14 16:36:00,
2013-07-14 09:41:00,73.7,43.6,29.81,NNE,23,2.0,2.0,34,0.00,,---,0.00,VWS V14.01,2013-07-14 16:41:00,
2013-07-14 09:46:00,75.1,44.8,29.80,North,356,4.0,4.0,34,0.00,,---,0.00,VWS V14.01,2013-07-14 16:46:00,
2013-07-14 09:51:00,75.3,44.2,29.80,NW,311,3.0,5.0,33,0.00,,---,0.00,VWS V14.01,2013-07-14 16:51:00,
2013-07-14 09:57:00,76.2,42.5,29.80,NNW,345,3.0,4.0,30,0.00,,---,0.00,VWS V14.01,2013-07-14 16:57:00,
2013-07-14 10:02:00,76.7,40.2,29.80,NNW,333,2.0,2.0,27,0.00,,---,0.00,VWS V14.01,2013-07-14 17:02:00,
2013-07-14 10:07:00,76.7,39.3,29.80,ESE,108,0.0,1.0,26,0.00,,---,0.00,VWS V14.01,2013-07-14 17:07:00,
2013-07-14 10:12:00,76.5,40.1,29.80,NW,319,0.0,0.0,27,0.00,,---,0.00,VWS V14.01,2013-07-14 17:12:00,
2013-07-14 10:17:00,76.1,43.3,29.80,NW,314,2.0,3.0,31,0.00,,---,0.00,VWS V14.01,2013-07-14 17:17:00,
2013-07-14 10:22:00,75.8,39.5,29.80,North,6,4.0,4.0,27,0.00,,---,0.00,VWS V14.01,2013-07-14 17:22:00,
2013-07-14 10:27:00,75.6,39.3,29.80,SE,131,0.0,0.0,27,0.00,,---,0.00,VWS V14.01,2013-07-14 17:27:00,
2013-07-14 10:32:00,75.2,39.9,29.80,WNW,287,1.0,1.0,28,0.00,,---,0.00,VWS V14.01,2013-07-14 17:32:00,
2013-07-14 10:37:00,74.9,40.5,29.80,NE,50,1.0,2.0,29,0.00,,---,0.00,VWS V14.01,2013-07-14 17:37:00,
2013-07-14 10:42:00,74.9,39.6,29.80,ENE,76,0.0,0.0,28,0.00,,---,0.00,VWS V14.01,2013-07-14 17:42:00,
2013-07-14 10:47:00,75.2,39.0,29.80,East,87,1.0,2.0,27,0.00,,---,0.00,VWS V14.01,2013-07-14 17:47:00,
2013-07-14 10:52:00,75.2,39.0,29.81,NNE,20,5.0,6.0,27,0.00,,---,0.00,VWS V14.01,2013-07-14 17:52:00,
2013-07-14 10:57:00,74.6,37.5,29.81,NNE,13,0.0,2.0,26,0.00,,---,0.00,VWS V14.01,2013-07-14 17:57:00,
2013-07-14 11:02:00,74.6,38.5,29.81,NE,46,1.0,4.0,27,0.00,,---,0.00,VWS V14.01,2013-07-14 18:02:00,
2013-07-14 11:07:00,75.3,38.1,29.80,North,11,4.0,6.0,26,0.00,,---,0.00,VWS V14.01,2013-07-14 18:07:00,
2013-07-14 11:12:00,75.8,38.5,29.80,NNE,26,4.0,4.0,26,0.00,,---,0.00,VWS V14.01,2013-07-14 18:12:00,
2013-07-14 11:17:00,76.6,38.2,29.80,NNE,29,2.0,2.0,25,0.00,,---,0.00,VWS V14.01,2013-07-14 18:17:00,
2013-07-14 11:22:00,76.3,38.9,29.81,NE,40,1.0,1.0,26,0.00,,---,0.00,VWS V14.01,2013-07-14 18:22:00,
2013-07-14 11:27:00,76.1,38.8,29.80,ESE,110,2.0,3.0,26,0.00,,---,0.00,VWS V14.01,2013-07-14 18:27:00,
2013-07-14 11:32:00,76.8,38.3,29.81,West,274,0.0,0.0,25,0.00,,---,0.00,VWS V14.01,2013-07-14 18:32:00,
2013-07-14 11:37:00,77.4,38.9,29.81,ENE,58,1.0,1.0,25,0.00,,---,0.00,VWS V14.01,2013-07-14 18:37:00,
2013-07-14 11:42:00,78.5,39.8,29.80,SW,222,0.0,0.0,25,0.00,,---,0.00,VWS V14.01,2013-07-14 18:42:00,
2013-07-14 11:47:00,79.0,39.2,29.81,NNE,20,5.0,5.0,24,0.00,,---,0.00,VWS V14.01,2013-07-14 18:47:00,
2013-07-14 11:52:00,78.5,38.7,29.80,NE,46,0.0,1.0,24,0.00,,---,0.00,VWS V14.01,2013-07-14 18:52:00,
2013-07-14 11:57:00,78.0,38.3,29.81,NNE,25,1.0,2.0,24,0.00,,---,0.00,VWS V14.01,2013-07-14 18:57:00,
2013-07-14 12:02:00,77.7,38.1,29.80,North,358,6.0,7.0,24,0.00,,---,0.00,VWS V14.01,2013-07-14 19:02:00,
2013-07-14 12:07:00,78.2,37.4,29.80,NNW,335,3.0,6.0,23,0.00,,---,0.00,VWS V14.01,2013-07-14 19:07:00,
2013-07-14 12:12:00,78.4,37.6,29.80,East,81,2.0,2.0,23,0.00,,---,0.00,VWS V14.01,2013-07-14 19:12:00,
2013-07-14 12:17:00,78.5,36.5,29.80,NW,323,3.0,3.0,22,0.00,,---,0.00,VWS V14.01,2013-07-14 19:17:00,
2013-07-14 12:23:00,78.3,37.5,29.80,East,86,0.0,1.0,23,0.00,,---,0.00,VWS V14.01,2013-07-14 19:23:00,
2013-07-14 12:28:00,78.5,38.7,29.79,SSE,148,0.0,0.0,24,0.00,,---,0.00,VWS V14.01,2013-07-14 19:28:00,
2013-07-14 12:33:00,79.1,39.2,29.79,NE,45,1.0,1.0,24,0.00,,---,0.00,VWS V14.01,2013-07-14 19:33:00,
2013-07-14 12:38:00,78.5,39.8,29.79,NE,47,0.0,0.0,25,0.00,,---,0.00,VWS V14.01,2013-07-14 19:38:00,
2013-07-14 12:43:00,78.0,38.3,29.79,East,97,0.0,0.0,24,0.00,,---,0.00,VWS V14.01,2013-07-14 19:43:00,
2013-07-14 12:48:00,77.3,37.7,29.79,ENE,72,1.0,2.0,24,0.00,,---,0.00,VWS V14.01,2013-07-14 19:48:00,
2013-07-14 12:53:00,76.4,38.0,29.79,NE,37,0.0,3.0,25,0.00,,---,0.00,VWS V14.01,2013-07-14 19:53:00,
2013-07-14 12:58:00,76.4,40.9,29.78,NNW,342,2.0,2.0,28,0.00,,---,0.00,VWS V14.01,2013-07-14 19:58:00,
2013-07-14 13:03:00,77.0,44.9,29.78,NNW,333,2.0,2.0,32,0.00,,---,0.00,VWS V14.01,2013-07-14 20:03:00,
2013-07-14 13:08:00,76.4,46.0,29.78,NNE,25,3.0,3.0,34,0.00,,---,0.00,VWS V14.01,2013-07-14 20:08:00,
2013-07-14 13:13:00,76.0,45.6,29.78,NE,44,0.0,1.0,34,0.00,,---,0.00,VWS V14.01,2013-07-14 20:13:00,
2013-07-14 13:18:00,76.1,44.1,29.78,NNE,25,1.0,1.0,32,0.00,,---,0.00,VWS V14.01,2013-07-14 20:18:00,
2013-07-14 13:23:00,76.0,46.4,29.77,NNE,20,0.0,0.0,35,0.00,,---,0.00,VWS V14.01,2013-07-14 20:23:00,
2013-07-14 13:28:00,76.1,46.5,29.77,NE,50,0.0,0.0,35,0.00,,---,0.00,VWS V14.01,2013-07-14 20:28:00,
2013-07-14 13:33:00,76.8,47.1,29.77,WNW,295,0.0,0.0,35,0.00,,---,0.00,VWS V14.01,2013-07-14 20:33:00,
2013-07-14 13:38:00,77.8,46.4,29.77,NNW,342,2.0,3.0,33,0.00,,---,0.00,VWS V14.01,2013-07-14 20:38:00,
2013-07-14 13:43:00,77.6,45.4,29.76,ESE,113,0.0,0.0,32,0.00,,---,0.00,VWS V14.01,2013-07-14 20:43:00,
2013-07-14 13:48:00,78.1,45.0,29.76,NW,307,0.0,0.0,31,0.00,,---,0.00,VWS V14.01,2013-07-14 20:48:00,
2013-07-14 13:53:00,78.1,45.9,29.76,NW,311,0.0,0.0,32,0.00,,---,0.00,VWS V14.01,2013-07-14 20:53:00,
2013-07-14 13:58:00,78.8,46.5,29.76,NW,307,1.0,3.0,32,0.00,,---,0.00,VWS V14.01,2013-07-14 20:58:00,
2013-07-14 14:03:00,77.8,45.6,29.76,NNW,328,6.0,6.0,32,0.00,,---,0.00,VWS V14.01,2013-07-14 21:03:00,
2013-07-14 14:04:00,77.4,44.4,29.76,WNW,287,1.0,2.0,31,0.00,,---,0.00,VWS V14.01,2013-07-14 21:04:00,
2013-07-14 14:09:00,76.8,45.5,29.75,NW,319,2.0,2.0,33,0.00,,---,0.00,VWS V14.01,2013-07-14 21:09:00,
2013-07-14 14:14:00,77.5,46.2,29.75,NNW,337,1.0,2.0,33,0.00,,---,0.00,VWS V14.01,2013-07-14 21:14:00,
2013-07-14 14:19:00,79.1,45.9,29.75,SSW,197,1.0,1.0,31,0.00,,---,0.00,VWS V14.01,2013-07-14 21:19:00,
2013-07-14 14:24:00,80.4,45.3,29.75,SE,139,1.0,1.0,29,0.00,,---,0.00,VWS V14.01,2013-07-14 21:24:00,
2013-07-14 14:29:00,80.2,45.1,29.75,South,183,0.0,0.0,29,0.00,,---,0.00,VWS V14.01,2013-07-14 21:29:00,
2013-07-14 14:34:00,79.8,44.8,29.74,WNW,298,1.0,1.0,29,0.00,,---,0.00,VWS V14.01,2013-07-14 21:34:00,
2013-07-14 14:39:00,79.1,45.9,29.75,WSW,253,0.0,0.0,31,0.00,,---,0.00,VWS V14.01,2013-07-14 21:39:00,
2013-07-14 14:45:00,78.5,45.4,29.74,NNW,334,4.0,5.0,31,0.00,,---,0.00,VWS V14.01,2013-07-14 21:45:00,
2013-07-14 14:50:00,77.8,44.8,29.74,NW,319,0.0,0.0,31,0.00,,---,0.00,VWS V14.01,2013-07-14 21:50:00,
2013-07-14 14:55:00,78.3,45.2,29.74,NW,324,0.0,0.0,31,0.00,,---,0.00,VWS V14.01,2013-07-14 21:55:00,
2013-07-14 15:00:00,78.6,45.5,29.74,NW,304,0.0,1.0,31,0.00,,---,0.00,VWS V14.01,2013-07-14 22:00:00,
2013-07-14 15:05:00,78.4,44.4,29.73,WNW,292,0.0,0.0,30,0.00,,---,0.00,VWS V14.01,2013-07-14 22:05:00,
2013-07-14 15:10:00,78.1,44.2,29.73,NW,314,2.0,3.0,30,0.00,,---,0.00,VWS V14.01,2013-07-14 22:10:00,
2013-07-14 15:15:00,78.2,43.4,29.73,WSW,248,1.0,1.0,29,0.00,,---,0.00,VWS V14.01,2013-07-14 22:15:00,
2013-07-14 15:20:00,78.0,44.1,29.73,West,278,1.0,1.0,30,0.00,,---,0.00,VWS V14.01,2013-07-14 22:20:00,
2013-07-14 15:25:00,77.9,44.0,29.72,NW,314,3.0,4.0,30,0.00,,---,0.00,VWS V14.01,2013-07-14 22:25:00,
2013-07-14 15:30:00,77.3,43.5,29.72,West,269,0.0,1.0,30,0.00,,---,0.00,VWS V14.01,2013-07-14 22:30:00,
2013-07-14 15:35:00,77.2,43.4,29.72,NW,313,2.0,2.0,30,0.00,,---,0.00,VWS V14.01,2013-07-14 22:35:00,
2013-07-14 15:40:00,76.7,43.0,29.72,NW,326,0.0,0.0,30,0.00,,---,0.00,VWS V14.01,2013-07-14 22:40:00,
2013-07-14 15:45:00,77.0,44.1,29.71,WNW,289,0.0,1.0,31,0.00,,---,0.00,VWS V14.01,2013-07-14 22:45:00,
2013-07-14 15:50:00,78.2,44.3,29.71,NW,316,0.0,0.0,30,0.00,,---,0.00,VWS V14.01,2013-07-14 22:50:00,
2013-07-14 15:55:00,78.7,45.6,29.71,NW,323,1.0,3.0,31,0.00,,---,0.00,VWS V14.01,2013-07-14 22:55:00,
2013-07-14 16:00:00,78.6,46.3,29.71,South,173,2.0,3.0,32,0.00,,---,0.00,VWS V14.01,2013-07-14 23:00:00,
2013-07-14 16:05:00,78.4,46.1,29.70,West,266,0.0,0.0,32,0.00,,---,0.00,VWS V14.01,2013-07-14 23:05:00,
2013-07-14 16:10:00,78.9,45.7,29.70,SSW,210,0.0,0.0,31,0.00,,---,0.00,VWS V14.01,2013-07-14 23:10:00,
2013-07-14 16:15:00,78.9,45.7,29.70,NNW,337,1.0,1.0,31,0.00,,---,0.00,VWS V14.01,2013-07-14 23:15:00,
2013-07-14 16:20:00,78.9,45.7,29.70,ENE,67,0.0,0.0,31,0.00,,---,0.00,VWS V14.01,2013-07-14 23:20:00,
2013-07-14 16:25:00,78.9,45.7,29.70,SW,214,2.0,3.0,31,0.00,,---,0.00,VWS V14.01,2013-07-14 23:25:00,
2013-07-14 16:30:00,78.6,46.3,29.70,SSW,212,0.0,0.0,32,0.00,,---,0.00,VWS V14.01,2013-07-14 23:30:00,
2013-07-14 16:35:00,78.9,45.7,29.70,SSE,162,0.0,0.0,31,0.00,,---,0.00,VWS V14.01,2013-07-14 23:35:00,
2013-07-14 16:40:00,78.8,46.5,29.69,SSW,208,0.0,1.0,32,0.00,,---,0.00,VWS V14.01,2013-07-14 23:40:00,
2013-07-14 16:45:00,79.2,46.8,29.69,NNW,346,1.0,1.0,32,0.00,,---,0.00,VWS V14.01,2013-07-14 23:45:00,
2013-07-14 16:51:00,80.3,46.9,29.69,SSE,168,1.0,1.0,31,0.00,,---,0.00,VWS V14.01,2013-07-14 23:51:00,
2013-07-14 16:56:00,80.0,46.7,29.69,West,270,1.0,1.0,31,0.00,,---,0.00,VWS V14.01,2013-07-14 23:56:00,
2013-07-14 17:01:00,80.5,46.2,29.69,SE,132,0.0,0.0,30,0.00,,---,0.00,VWS V14.01,2013-07-15 00:01:00,
2013-07-14 17:06:00,80.1,45.9,29.69,South,170,0.0,0.0,30,0.00,,---,0.00,VWS V14.01,2013-07-15 00:06:00,
2013-07-14 17:12:00,79.6,46.3,29.69,SSW,211,0.0,0.0,31,0.00,,---,0.00,VWS V14.01,2013-07-15 00:12:00,
2013-07-14 17:17:00,79.2,46.0,29.68,SW,215,0.0,0.0,31,0.00,,---,0.00,VWS V14.01,2013-07-15 00:17:00,
2013-07-14 17:22:00,78.9,45.7,29.68,SSW,210,0.0,0.0,31,0.00,,---,0.00,VWS V14.01,2013-07-15 00:22:00,
2013-07-14 17:27:00,78.7,45.6,29.68,SSW,201,0.0,0.0,31,0.00,,---,0.00,VWS V14.01,2013-07-15 00:27:00,
2013-07-14 17:32:00,78.9,45.7,29.68,SSE,157,0.0,1.0,31,0.00,,---,0.00,VWS V14.01,2013-07-15 00:32:00,
2013-07-14 17:37:00,79.2,46.0,29.68,NE,52,1.0,1.0,31,0.00,,---,0.00,VWS V14.01,2013-07-15 00:37:00,
2013-07-14 17:42:00,79.7,46.4,29.68,North,356,0.0,0.0,31,0.00,,---,0.00,VWS V14.01,2013-07-15 00:42:00,
2013-07-14 17:47:00,80.1,45.9,29.68,WSW,253,1.0,1.0,30,0.00,,---,0.00,VWS V14.01,2013-07-15 00:47:00,
2013-07-14 17:52:00,79.9,45.7,29.68,ENE,74,1.0,1.0,30,0.00,,---,0.00,VWS V14.01,2013-07-15 00:52:00,
2013-07-14 17:57:00,79.8,45.6,29.68,ENE,72,1.0,1.0,30,0.00,,---,0.00,VWS V14.01,2013-07-15 00:57:00,
2013-07-14 18:02:00,79.8,45.6,29.68,SSE,148,1.0,2.0,30,0.00,,---,0.00,VWS V14.01,2013-07-15 01:02:00,
2013-07-14 18:07:00,79.2,45.1,29.68,SSW,200,0.0,0.0,30,0.00,,---,0.00,VWS V14.01,2013-07-15 01:07:00,
2013-07-14 18:12:00,78.8,45.6,29.68,South,190,1.0,1.0,31,0.00,,---,0.00,VWS V14.01,2013-07-15 01:12:00,
2013-07-14 18:17:00,78.6,45.5,29.68,SSE,166,0.0,0.0,31,0.00,,---,0.00,VWS V14.01,2013-07-15 01:17:00,
2013-07-14 18:22:00,78.5,45.4,29.68,NW,323,0.0,0.0,31,0.00,,---,0.00,VWS V14.01,2013-07-15 01:22:00,
2013-07-14 18:27:00,78.2,45.1,29.68,West,273,0.0,0.0,31,0.00,,---,0.00,VWS V14.01,2013-07-15 01:27:00,
2013-07-14 18:32:00,77.4,45.3,29.68,East,82,0.0,1.0,32,0.00,,---,0.00,VWS V14.01,2013-07-15 01:32:00,
2013-07-14 18:37:00,76.6,44.6,29.68,NE,49,0.0,1.0,32,0.00,,---,0.00,VWS V14.01,2013-07-15 01:37:00,
2013-07-14 18:42:00,76.0,44.8,29.69,SSW,212,0.0,1.0,33,0.00,,---,0.00,VWS V14.01,2013-07-15 01:42:00,
2013-07-14 18:48:00,75.2,44.2,29.68,South,176,0.0,0.0,33,0.00,,---,0.00,VWS V14.01,2013-07-15 01:48:00,
2013-07-14 18:53:00,74.2,44.1,29.68,SSE,152,0.0,0.0,34,0.00,,---,0.00,VWS V14.01,2013-07-15 01:53:00,
2013-07-14 18:58:00,73.4,44.1,29.69,SSW,211,0.0,0.0,35,0.00,,---,0.00,VWS V14.01,2013-07-15 01:58:00,
2013-07-14 19:03:00,72.7,43.5,29.69,NNE,12,0.0,0.0,35,0.00,,---,0.00,VWS V14.01,2013-07-15 02:03:00,
2013-07-14 19:08:00,72.1,43.7,29.69,NNE,12,0.0,0.0,36,0.00,,---,0.00,VWS V14.01,2013-07-15 02:08:00,
2013-07-14 19:13:00,71.7,44.1,29.69,WNW,293,0.0,0.0,37,0.00,,---,0.00,VWS V14.01,2013-07-15 02:13:00,
2013-07-14 19:18:00,71.6,44.0,29.68,NNW,328,0.0,0.0,37,0.00,,---,0.00,VWS V14.01,2013-07-15 02:18:00,
2013-07-14 19:23:00,71.4,45.8,29.69,WNW,291,0.0,0.0,40,0.00,,---,0.00,VWS V14.01,2013-07-15 02:23:00,
2013-07-14 19:28:00,71.0,46.1,29.68,SSE,164,0.0,0.0,41,0.00,,---,0.00,VWS V14.01,2013-07-15 02:28:00,
2013-07-14 19:33:00,70.5,46.3,29.68,SW,214,0.0,0.0,42,0.00,,---,0.00,VWS V14.01,2013-07-15 02:33:00,
2013-07-14 19:38:00,70.0,45.9,29.68,West,280,0.0,0.0,42,0.00,,---,0.00,VWS V14.01,2013-07-15 02:38:00,
2013-07-14 19:43:00,69.6,46.8,29.69,West,280,0.0,0.0,44,0.00,,---,0.00,VWS V14.01,2013-07-15 02:43:00,
2013-07-14 19:48:00,69.0,46.8,29.69,West,280,0.0,0.0,45,0.00,,---,0.00,VWS V14.01,2013-07-15 02:48:00,
2013-07-14 19:53:00,68.5,46.9,29.69,West,266,0.0,0.0,46,0.00,,---,0.00,VWS V14.01,2013-07-15 02:53:00,
2013-07-14 19:58:00,68.0,46.5,29.69,West,267,0.0,0.0,46,0.00,,---,0.00,VWS V14.01,2013-07-15 02:58:00,
2013-07-14 20:03:00,67.5,46.6,29.69,West,267,0.0,0.0,47,0.00,,---,0.00,VWS V14.01,2013-07-15 03:03:00,
2013-07-14 20:08:00,66.9,46.6,29.69,West,267,0.0,0.0,48,0.00,,---,0.00,VWS V14.01,2013-07-15 03:08:00,
2013-07-14 20:13:00,66.3,46.0,29.69,West,267,0.0,0.0,48,0.00,,---,0.00,VWS V14.01,2013-07-15 03:13:00,
2013-07-14 20:18:00,65.8,45.6,29.69,West,266,0.0,0.0,48,0.00,,---,0.00,VWS V14.01,2013-07-15 03:18:00,
2013-07-14 20:23:00,65.1,45.5,29.69,West,266,0.0,0.0,49,0.00,,---,0.00,VWS V14.01,2013-07-15 03:23:00,
2013-07-14 20:28:00,64.6,45.0,29.69,West,267,0.0,0.0,49,0.00,,---,0.00,VWS V14.01,2013-07-15 03:28:00,
2013-07-14 20:33:00,64.0,43.9,29.69,West,267,0.0,0.0,48,0.00,,---,0.00,VWS V14.01,2013-07-15 03:33:00,
2013-07-14 20:38:00,63.5,43.5,29.69,West,266,0.0,0.0,48,0.00,,---,0.00,VWS V14.01,2013-07-15 03:38:00,
2013-07-14 20:43:00,63.0,43.0,29.69,West,267,0.0,0.0,48,0.00,,---,0.00,VWS V14.01,2013-07-15 03:43:00,
2013-07-14 20:48:00,62.7,42.8,29.70,West,267,0.0,0.0,48,0.00,,---,0.00,VWS V14.01,2013-07-15 03:48:00,
2013-07-14 20:53:00,62.4,42.5,29.70,West,266,0.0,0.0,48,0.00,,---,0.00,VWS V14.01,2013-07-15 03:53:00,
2013-07-14 20:58:00,62.2,42.8,29.70,West,267,0.0,0.0,49,0.00,,---,0.00,VWS V14.01,2013-07-15 03:58:00,
2013-07-14 21:01:00,62.1,42.7,29.70,West,267,0.0,0.0,49,0.00,,---,0.00,VWS V14.01,2013-07-15 04:01:00,
2013-07-14 21:03:00,62.1,42.7,29.70,West,266,0.0,0.0,49,0.00,,---,0.00,VWS V14.01,2013-07-15 04:03:00,
2013-07-14 21:07:00,62.0,42.6,29.70,West,266,0.0,0.0,49,0.00,,---,0.00,VWS V14.01,2013-07-15 04:07:00,
2013-07-14 21:08:00,62.0,42.6,29.70,West,267,0.0,0.0,49,0.00,,---,0.00,VWS V14.01,2013-07-15 04:08:00,
2013-07-14 21:13:00,62.0,42.6,29.70,West,267,0.0,0.0,49,0.00,,---,0.00,VWS V14.01,2013-07-15 04:13:00,
2013-07-14 21:18:00,61.9,42.5,29.71,West,267,0.0,0.0,49,0.00,,---,0.00,VWS V14.01,2013-07-15 04:18:00,
2013-07-14 21:23:00,61.9,43.1,29.71,West,267,0.0,0.0,50,0.00,,---,0.00,VWS V14.01,2013-07-15 04:23:00,
2013-07-14 21:28:00,61.8,43.0,29.71,West,266,0.0,0.0,50,0.00,,---,0.00,VWS V14.01,2013-07-15 04:28:00,
2013-07-14 21:33:00,61.8,43.5,29.71,West,266,0.0,0.0,51,0.00,,---,0.00,VWS V14.01,2013-07-15 04:33:00,
2013-07-14 21:38:00,61.7,43.4,29.72,West,267,0.0,0.0,51,0.00,,---,0.00,VWS V14.01,2013-07-15 04:38:00,
2013-07-14 21:43:00,61.8,45.0,29.72,West,267,0.0,0.0,54,0.00,,---,0.00,VWS V14.01,2013-07-15 04:43:00,
2013-07-14 21:48:00,61.9,45.6,29.72,West,267,0.0,0.0,55,0.00,,---,0.00,VWS V14.01,2013-07-15 04:48:00,
2013-07-14 21:53:00,61.9,45.6,29.72,West,267,0.0,0.0,55,0.00,,---,0.00,VWS V14.01,2013-07-15 04:53:00,
2013-07-14 21:58:00,61.8,45.5,29.72,West,267,0.0,0.0,55,0.00,,---,0.00,VWS V14.01,2013-07-15 04:58:00,
2013-07-14 22:03:00,61.5,45.2,29.72,West,266,0.0,0.0,55,0.00,,---,0.00,VWS V14.01,2013-07-15 05:03:00,
2013-07-14 22:08:00,61.2,45.4,29.72,West,267,0.0,0.0,56,0.00,,---,0.00,VWS V14.01,2013-07-15 05:08:00,
2013-07-14 22:13:00,60.9,45.6,29.72,West,266,0.0,0.0,57,0.00,,---,0.00,VWS V14.01,2013-07-15 05:13:00,
2013-07-14 22:18:00,60.7,45.8,29.72,West,267,0.0,0.0,58,0.00,,---,0.00,VWS V14.01,2013-07-15 05:18:00,
2013-07-14 22:23:00,60.4,45.6,29.72,West,267,0.0,0.0,58,0.00,,---,0.00,VWS V14.01,2013-07-15 05:23:00,
2013-07-14 22:28:00,60.0,44.7,29.72,West,267,0.0,0.0,57,0.00,,---,0.00,VWS V14.01,2013-07-15 05:28:00,
2013-07-14 22:33:00,59.7,44.5,29.72,West,267,0.0,0.0,57,0.00,,---,0.00,VWS V14.01,2013-07-15 05:33:00,
2013-07-14 22:38:00,59.4,43.7,29.72,West,267,0.0,0.0,56,0.00,,---,0.00,VWS V14.01,2013-07-15 05:38:00,
2013-07-14 22:43:00,59.1,43.4,29.72,West,267,0.0,0.0,56,0.00,,---,0.00,VWS V14.01,2013-07-15 05:43:00,
2013-07-14 22:48:00,58.8,43.2,29.72,West,267,0.0,0.0,56,0.00,,---,0.00,VWS V14.01,2013-07-15 05:48:00,
2013-07-14 22:53:00,58.4,42.8,29.72,West,267,0.0,0.0,56,0.00,,---,0.00,VWS V14.01,2013-07-15 05:53:00,
2013-07-14 22:58:00,58.2,42.6,29.72,West,266,0.0,0.0,56,0.00,,---,0.00,VWS V14.01,2013-07-15 05:58:00,
2013-07-14 23:03:00,58.0,41.9,29.72,West,267,0.0,0.0,55,0.00,,---,0.00,VWS V14.01,2013-07-15 06:03:00,
2013-07-14 23:08:00,57.8,41.8,29.72,West,267,0.0,0.0,55,0.00,,---,0.00,VWS V14.01,2013-07-15 06:08:00,
2013-07-14 23:13:00,58.3,42.7,29.72,West,267,0.0,0.0,56,0.00,,---,0.00,VWS V14.01,2013-07-15 06:13:00,
2013-07-14 23:18:00,58.3,41.3,29.72,West,267,0.0,0.0,53,0.00,,---,0.00,VWS V14.01,2013-07-15 06:18:00,
2013-07-14 23:23:00,58.0,40.5,29.72,West,267,0.0,0.0,52,0.00,,---,0.00,VWS V14.01,2013-07-15 06:23:00,
2013-07-14 23:28:00,57.6,40.1,29.73,West,267,0.0,0.0,52,0.00,,---,0.00,VWS V14.01,2013-07-15 06:28:00,
2013-07-14 23:33:00,57.2,40.2,29.73,West,267,0.0,0.0,53,0.00,,---,0.00,VWS V14.01,2013-07-15 06:33:00,
2013-07-14 23:39:00,57.0,39.6,29.72,West,267,0.0,0.0,52,0.00,,---,0.00,VWS V14.01,2013-07-15 06:39:00,
2013-07-14 23:44:00,56.8,39.4,29.73,West,267,0.0,0.0,52,0.00,,---,0.00,VWS V14.01,2013-07-15 06:44:00,
2013-07-14 23:49:00,56.7,40.7,29.73,West,267,0.0,0.0,55,0.00,,---,0.00,VWS V14.01,2013-07-15 06:49:00,
2013-07-14 23:54:00,56.5,39.6,29.73,West,266,0.0,0.0,53,0.00,,---,0.00,VWS V14.01,2013-07-15 06:54:00,
2013-07-14 23:59:00,56.1,39.2,29.73,West,267,0.0,0.0,53,0.00,,---,0.00,VWS V14.01,2013-07-15 06:59:00,